ISS DEB (SPX-26 IPA FSE) (55448 NORAD) Tracking and Keplerian Element Data

This shows tracking and keplerian element data for the satellite.

Feedback or suggestion? Click here.




ElementValue
Catalog55448
NameISS DEB (SPX-26 IPA FSE)
Epoch Orbit1484
Epoch Day127.09868192
Epoch Year2023
RAAN168.9357
Inclination51.636
Eccentricity0.000746
Argument of Perigee325.0406
Mean Anonmoly35.0096
Mean Motion15.58446613
Decay Rate0.0004516
L11 55448U 98067VB 23127.09868192 .00045160 00000+0 58378-3 0 9993
L22 55448 51.6360 168.9357 0007460 325.0406 35.0096 15.58446613 14848



Live tracking and technical data element details for ISS DEB (SPX-26 IPA FSE) (NORAD 55448). ISS DEB (SPX-26 IPA FSE) can be tracked NOW for your location showing map with azimuth and elevation plus other details from your city location.







IsCatalogInMostPopularTable: catalog: 55448, numindb: 66
Update: records affected: 1



GetName: 55448 ISS DEB (SPX-26 IPA FSE)

Hit Count: updated at: Mon, 05 Jun 2023 20:47:29 GMT